Flag for Netherlands Weather past 2 weeks in Oss, Netherlands

Now
79 °F

Partly sunny.


Feels Like: 81 °F
Forecast: 65 / 87 °F
Wind: 9 mph from North

Location: Volkel

Current Time: Jul 2, 2015 at 8:54:59 PM

Latest Report: Jul 2, 2015 at 8:25 PM


Visibility: N/A

Pressure: 30.09 "Hg

Humidity: 61%

Dew point: 64 °F

Location of OssLocation

Historic Weather in Oss — Graph

°F

Oss temperature yesterday

Maximum temperature yesterday: 93 °F (at 3:25 PM)
Minimum temperature yesterday: 59 °F (at 3:55 AM)
Average temperature yesterday: 79 °F

Past Weeks' High & Low Weather Summary

 TemperatureHumidityPressure
High99 °F (Jul 2, 2:55 PM)100% (Jun 23, 12:55 AM)30.21 "Hg (Jun 23, 12:55 AM)
Low46 °F (Jun 23, 12:55 AM)26% (Jul 1, 3:25 PM)29.68 "Hg (Jun 22, 7:25 PM)
Average64 °F70%30.05 "Hg
* Reported Jun 17 7:25 PM — Jul 2 7:55 PM, Oss, Weather by CustomWeather, © 2015

Note: Actual official high and low records may vary slightly from our data, if they occured in-between our weather recording intervals... More about our weather records

Advertising

Oss weather history for previous 24 hours

 ConditionsComfort  
Time TempWeatherWind HumidityBarometerVisibility
7:55 PM
Thu, Jul 2
82 °FWarm.8 mph58%30.07 "HgN/A
7:25 PM82 °FPassing clouds.10 mph55%30.07 "HgN/A
6:55 PM82 °FMore clouds than sun.13 mph55%30.07 "HgN/A
6:25 PM82 °FMostly cloudy.13 mph55%30.07 "HgN/A
5:55 PM84 °FOvercast.10 mph55%30.04 "HgN/A
5:25 PM84 °FOvercast.13 mph55%30.04 "HgN/A
4:55 PM88 °FPartly sunny.12 mph52%30.04 "HgN/A
4:25 PM93 °FPassing clouds.10 mph47%30.01 "HgN/A
3:55 PM99 °FPassing clouds.7 mph31%30.01 "HgN/A
3:25 PM97 °FPassing clouds.8 mph30%30.01 "HgN/A
2:55 PM99 °FExtremely hot.9 mph29%30.01 "HgN/A
2:25 PM97 °FExtremely hot.9 mph32%30.01 "HgN/A
1:55 PM97 °FPassing clouds.8 mph32%30.01 "HgN/A
1:25 PM95 °FPartly sunny.8 mph34%30.01 "HgN/A
12:55 PM93 °FPassing clouds.7 mph36%30.04 "HgN/A
12:25 PM91 °FHot.8 mph38%30.01 "HgN/A
11:55 AM91 °FPassing clouds.6 mph38%30.01 "HgN/A
11:25 AM90 °FPassing clouds.7 mph41%30.01 "HgN/A
10:55 AM88 °FWarm.8 mph43%30.01 "HgN/A
10:25 AM88 °FWarm.7 mph43%30.01 "HgN/A
9:55 AM86 °FWarm.8 mph46%30.01 "HgN/A
9:25 AM84 °FWarm.8 mph48%30.01 "HgN/A
8:55 AM82 °FWarm.8 mph51%30.01 "HgN/A
8:25 AM79 °FScattered clouds.8 mph58%30.04 "HgN/A
7:55 AM77 °FWarm.6 mph57%30.01 "HgN/A
7:25 AM75 °FPassing clouds.3 mph61%30.01 "HgN/A
6:55 AM73 °FMild.3 mph65%30.01 "HgN/A
6:25 AM72 °FMild.3 mph65%30.01 "HgN/A
5:55 AM68 °FMild.6 mph73%30.01 "HgN/A
5:25 AM68 °FMild.5 mph73%30.01 "HgN/A
4:55 AM68 °FMild.6 mph73%30.01 "HgN/A
4:25 AM70 °FMild.5 mph69%30.01 "HgN/A
3:55 AM72 °FMild.7 mph65%30.01 "HgN/A
3:25 AM72 °FMild.5 mph65%30.01 "HgN/A
2:55 AM70 °FMild.6 mph69%30.01 "HgN/A
2:25 AM70 °FMild.5 mph69%30.01 "HgN/A
1:55 AM70 °FMild.5 mph69%30.01 "HgN/A
1:25 AM73 °FMild.6 mph61%30.01 "HgN/A
12:55 AM75 °FMild.5 mph54%30.01 "HgN/A
12:25 AM77 °FWarm.5 mph51%30.01 "HgN/A
11:55 PM
Wed, Jul 1
79 °FWarm.6 mph48%29.98 "HgN/A
10:55 PM81 °FWarm.7 mph48%29.98 "HgN/A
10:25 PM81 °FWarm.6 mph48%29.98 "HgN/A
9:55 PM82 °FWarm.6 mph45%29.98 "HgN/A
9:25 PM84 °FWarm.6 mph43%29.98 "HgN/A
8:55 PM88 °FPleasantly warm.6 mph38%29.98 "HgN/A
8:25 PM90 °FHot.8 mph33%29.98 "HgN/A
Weather by CustomWeather, © 2015

See weather overviewHow to use our weather pages